Location: Hac?musa Deresi
(39.1694°N, 32.2508°E)
Time: 09:19:23
(UTC+00:00)

Cosmos 2341 Rocket - Pass Details

Date: 22 April 2026
Orbit: 968 x 1002 km, 82.9° (Epoch: 12 May)

Event Time Altitude Azimuth Distance (km) Brightness Sun altitude
Rises 17:06:40 0° 181° (S) 3,658 6.8 -6.6°
Reaches altitude 10° 17:09:09 10° 181° (S) 2,719 6.1 -7.0°
Maximum altitude 17:15:23 80° 95° (E) 1,002 4.0 -8.2°
Drops below altitude 10° 17:21:43 10° 9° (N) 2,760 6.6 -9.3°
Sets 17:24:15 0° 9° (N) 3,717 7.3 -9.7°
